[[{"header":{"parameterUnit":"m.s-1","parameterCategory":1,"la1":30.2991,"la2":30.254,"lo1":-89.0895,"lo2":-89.0444,"dy":0.0017,"dx":0.0017,"nx":28,"ny":28,"refTime":"2024-10-08T21:00:00:Z","depth":0,"parameterNumber":2,"parameterNumberName":"U-component_of_WINDS"},"data":[0,0,0,0,0,0,0,0,0,0,0,0,0,0,0,0,0,0,0,0,0,0,0,0,0,0,0,0,0,0,0,0,0,0,0,0,0,0,0,0,0,0,0,0,0,0,0,0,0,0,0,0,0,0,0,0,0,0,-1.0321,-1.0321,0,-1.0384,-1.0385,-1.0386,-1.0347,-1.0345,-1.0344,-1.0342,-1.0409,-1.0413,-1.0416,0,0,0,0,0,0,0,0,0,0,0,0,0,-1.0168,-1.0171,-1.0321,-1.0321,-1.0322,-1.0384,-1.0385,-1.0386,-1.0348,-1.0345,-1.0343,-1.0341,-1.0408,-1.0412,-1.0416,0,0,0,0,0,0,0,0,0,0,0,0,0,-1.0233,-1.0172,-1.032,-1.031,-1.031,-1.0384,-1.0385,-1.0386,-1.0348,-1.0345,-1.0342,-1.034,-1.0407,-1.0412,-1.0417,-1.0505,0,0,-1.0433,-1.0435,0,0,0,0,0,0,0,0,-1.023,-1.0239,-1.0311,-1.0311,-1.0311,-1.0355,-1.0356,-1.0426,-1.0349,-1.0334,-1.0342,-1.0339,-1.0394,-1.04,-1.0418,-1.0508,-1.0511,-1.0434,-1.0437,-1.0439,-1.0441,0,0,0,0,0,0,0,-1.0225,-1.0236,-1.0346,-1.0312,-1.0312,-1.0303,-1.031,-1.0369,-1.0378,-1.0335,-1.0332,-1.034,-1.0393,-1.0413,-1.0419,-1.0512,-1.0433,-1.0438,-1.0441,-1.0443,-1.0679,-1.0682,0,0,0,0,0,0,-1.0221,-1.0232,-1.0344,-1.0348,-1.0263,-1.0308,-1.0315,-1.0344,-1.0378,-1.038,-1.0342,-1.0338,-1.0405,-1.0413,-1.0421,-1.0528,-1.0439,-1.0444,-1.0447,-1.0676,-1.068,-1.0683,0,0,0,0,0,0,-1.0218,-1.0231,-1.0341,-1.0289,-1.0303,-1.0314,-1.0346,-1.0346,-1.0366,-1.0383,-1.0385,-1.0361,-1.0403,-1.0414,-1.0485,-1.053,-1.0446,-1.0451,-1.0672,-1.0677,-1.0681,-1.0741,0,0,0,0,0,0,-1.0214,-1.023,-1.0264,-1.029,-1.0306,-1.0403,-1.0349,-1.035,-1.0375,-1.037,-1.0401,-1.0404,-1.0402,-1.0477,-1.049,-1.0536,-1.0455,-1.0668,-1.0674,-1.068,-1.0735,-1.0747,-1.0758,0,0,0,0,0,-1.0208,-1.0278,-1.0265,-1.0279,-1.0347,-1.0406,-1.0415,-1.0411,-1.0379,-1.0413,-1.0424,-1.0403,-1.0522,-1.0484,-1.0499,-1.0547,-1.0666,-1.0673,-1.0679,-1.073,-1.0745,-1.0757,0,0,0,0,0,0,-1.0257,-1.0281,-1.0268,-1.0348,-1.0375,-1.0399,-1.0442,-1.0426,-1.0463,-1.0457,-1.0451,-1.0458,-1.0532,-1.0546,-1.0504,-1.0634,-1.0589,-1.0599,-1.0623,-1.0637,-1.0648,-1.0644,-1.046,0,0,0,0,0,-1.0277,-1.0322,-1.0341,-1.041,-1.0424,-1.0431,-1.0456,-1.045,-1.0479,-1.049,-1.0506,-1.0535,-1.0579,-1.0608,-1.065,-1.0736,-1.0744,-1.0776,-1.0787,-1.0797,-1.0806,-1.0855,-1.087,-1.0706,-1.0706,-1.0706,0,0,-1.0319,-1.0338,-1.0367,-1.042,-1.044,-1.0488,-1.0441,-1.0493,-1.0528,-1.0498,-1.0566,-1.0579,-1.0611,-1.069,-1.0726,-1.0704,-1.0853,-1.0805,-1.0813,-1.0817,-1.0864,-1.0879,-1.0893,-1.0711,-1.071,-1.0709,0,0,-1.042,-1.0438,-1.0498,-1.052,-1.0551,-1.0554,-1.0569,-1.0595,-1.0603,-1.0671,-1.0649,-1.0692,-1.0767,-1.0791,-1.0813,-1.0923,-1.0906,-1.0937,-1.0996,-1.1044,-1.1057,-1.1068,-1.111,-1.1124,-1.0946,-1.0946,-1.0946,0,-1.0469,-1.0539,-1.0531,-1.0586,-1.0611,-1.0584,-1.0646,-1.0667,-1.071,-1.0729,-1.0703,-1.0798,-1.0817,-1.0903,-1.0929,-1.0947,-1.0965,-1.0935,-1.1055,-1.1067,-1.1077,-1.1117,-1.1132,-1.095,-1.0949,-1.0949,-1.0949,0,-1.0598,-1.0647,-1.0692,-1.0735,-1.0764,-1.0822,-1.0824,-1.0855,-1.0846,-1.0853,-1.0924,-1.0945,-1.0992,-1.1011,-1.1003,-1.1096,-1.1082,-1.1056,-1.1011,-1.1097,-1.1134,-1.1149,-1.0955,-1.0954,-1.0953,-1.0952,0,0,-1.0734,-1.0771,-1.0788,-1.0807,-1.0839,-1.0878,-1.0934,-1.0978,-1.1006,-1.1036,-1.1085,-1.1149,-1.1126,-1.1151,-1.1146,-1.1187,-1.1275,-1.1156,-1.1157,-1.118,-1.1381,-1.1402,-1.142,-1.1263,-1.1265,-1.1268,-1.1379,0,-1.0839,-1.0938,-1.0932,-1.1025,-1.1072,-1.1047,-1.1096,-1.1122,-1.113,-1.1171,-1.1179,-1.1226,-1.119,-1.1205,-1.1245,-1.1256,-1.1316,-1.1248,-1.131,-1.1312,-1.1305,-1.1439,-1.1461,-1.1565,-1.1393,-1.1396,-1.1397,0,-1.0975,-1.101,-1.1108,-1.1134,-1.1153,-1.1198,-1.1239,-1.1277,-1.1306,-1.1309,-1.1337,-1.1325,-1.1383,-1.1335,-1.1416,-1.137,-1.1394,-1.1404,-1.1408,-1.1416,-1.1362,-1.1453,-1.1598,-1.1615,-1.142,-1.1418,-1.1416,0,-1.1067,-1.1138,-1.1206,-1.1223,-1.1255,-1.1287,-1.1302,-1.1328,-1.1355,-1.1391,-1.1409,-1.1451,-1.1474,-1.1507,-1.1508,-1.1472,-1.1591,-1.1542,-1.1596,-1.1597,-1.1625,-1.1624,-1.1779,-1.1637,-1.1636,-1.1636,-1.1636,0,-1.1187,-1.1248,-1.1248,-1.1291,-1.1359,-1.1352,-1.142,-1.1431,-1.1455,-1.1499,-1.148,-1.1522,-1.1518,-1.1562,-1.1562,-1.1631,-1.1641,-1.1646,-1.1646,-1.1649,-1.1649,-1.1667,-1.1661,-1.164,-1.1639,-1.1638,-1.1638,0,-1.1302,-1.1304,-1.1377,-1.1401,-1.1408,-1.1458,-1.1479,-1.1519,-1.1524,-1.1581,-1.1594,-1.1603,-1.1653,-1.1656,-1.1713,-1.1713,-1.1798,-1.1788,-1.1788,-1.1788,-1.1843,-1.1839,-1.2018,-1.2042,-1.1881,-1.1883,-1.1884,0,-1.1379,-1.1426,-1.1455,-1.1483,-1.15,-1.1545,-1.1573,-1.1568,-1.1598,-1.1634,-1.1671,-1.1718,-1.1757,-1.1838,-1.185,-1.1894,-1.1887,-1.1947,-1.1894,-1.1896,-1.1891,-1.189,-1.1895,-1.1958,-1.196,-1.1961,-1.1963,0,-1.1517,-1.1516,-1.1557,-1.1598,-1.1632,-1.1664,-1.1694,-1.1718,-1.1717,-1.1751,-1.1802,-1.1831,-1.189,-1.1939,-1.1981,-1.1997,-1.1981,-1.1979,-1.1994,-1.2,-1.1999,-1.2003,-1.1819,-1.1975,-1.1974,-1.1973,-1.1972,-1.1972,-1.1618,-1.1659,-1.1685,-1.1731,-1.1753,-1.1782,-1.1822,-1.1832,-1.1873,-1.1921,-1.1915,-1.1972,-1.2,-1.2056,-1.2075,-1.212,-1.21,-1.2121,-1.2128,-1.2134,-1.2141,-1.1989,-1.2127,-1.2127,-1.2127,-1.2126,-1.2126,0,-1.1757,-1.1773,-1.1815,-1.1857,-1.1894,-1.1873,-1.1905,-1.1938,-1.1988,-1.2015,-1.2053,-1.2112,-1.2158,-1.2174,-1.222,-1.2253,-1.2247,-1.2265,-1.2264,-1.2269,-1.2155,-1.2138,-1.227,-1.227,-1.227,-1.227,-1.227,-1.227,-1.1834,-1.1902,-1.1905,-1.1984,-1.1999,-1.2055,-1.2075,-1.2102,-1.2124,-1.219,-1.2229,-1.2238,-1.2261,-1.2309,-1.2351,-1.2354,-1.2373,-1.2396,-1.2397,-1.2291,-1.2277,-1.2263,-1.2247,-1.24,-1.24,-1.2507,-1.2508,-1.2509]},{"header":{"parameterUnit":"m.s-1","parameterCategory":1,"la1":30.2991,"la2":30.254,"lo1":-89.0895,"lo2":-89.0444,"dy":0.0017,"dx":0.0017,"nx":28,"ny":28,"refTime":"2024-10-08T21:00:00:Z","depth":0,"parameterNumber":3,"parameterNumberName":"V-component_of_WINDS"},"data":[0,0,0,0,0,0,0,0,0,0,0,0,0,0,0,0,0,0,0,0,0,0,0,0,0,0,0,0,0,0,0,0,0,0,0,0,0,0,0,0,0,0,0,0,0,0,0,0,0,0,0,0,0,0,0,0,0,0,-4.9468,-4.9468,0,-4.949,-4.949,-4.949,-4.9377,-4.9373,-4.937,-4.9367,-4.9387,-4.939,-4.9394,0,0,0,0,0,0,0,0,0,0,0,0,0,-4.9325,-4.9328,-4.9468,-4.9468,-4.9468,-4.949,-4.949,-4.949,-4.9377,-4.9373,-4.9369,-4.9365,-4.9386,-4.939,-4.9394,0,0,0,0,0,0,0,0,0,0,0,0,0,-4.9371,-4.9329,-4.9468,-4.9415,-4.941,-4.949,-4.949,-4.949,-4.9378,-4.9373,-4.9368,-4.9364,-4.9384,-4.9389,-4.9395,-4.9526,0,0,-4.9411,-4.9413,0,0,0,0,0,0,0,0,-4.9369,-4.9376,-4.9422,-4.9418,-4.9413,-4.9425,-4.9447,-4.9502,-4.9379,-4.939,-4.9367,-4.9361,-4.9403,-4.9407,-4.9422,-4.9527,-4.9527,-4.9411,-4.9415,-4.9417,-4.9418,0,0,0,0,0,0,0,-4.9366,-4.9375,-4.9476,-4.9423,-4.9418,-4.9389,-4.939,-4.9457,-4.9424,-4.9389,-4.9381,-4.9385,-4.94,-4.9417,-4.9421,-4.9528,-4.9411,-4.9416,-4.9419,-4.9421,-4.9741,-4.9746,0,0,0,0,0,0,-4.937,-4.9373,-4.9476,-4.9477,-4.9379,-4.9395,-4.9396,-4.9427,-4.9423,-4.9418,-4.9389,-4.9379,-4.941,-4.9415,-4.9421,-4.9575,-4.9417,-4.9422,-4.9425,-4.9736,-4.9742,-4.9748,0,0,0,0,0,0,-4.9367,-4.938,-4.9475,-4.9423,-4.9433,-4.9403,-4.9438,-4.943,-4.9446,-4.9423,-4.9416,-4.9412,-4.9406,-4.9414,-4.9501,-4.9574,-4.9424,-4.9429,-4.9729,-4.9738,-4.9745,-4.9883,0,0,0,0,0,0,-4.9364,-4.938,-4.943,-4.9425,-4.9436,-4.9555,-4.9442,-4.9433,-4.9456,-4.9444,-4.9443,-4.9438,-4.9403,-4.9493,-4.9506,-4.9579,-4.9433,-4.9723,-4.9733,-4.9742,-4.9872,-4.9895,-4.9914,0,0,0,0,0,-4.9359,-4.9467,-4.9433,-4.9446,-4.9498,-4.956,-4.9566,-4.9524,-4.9462,-4.9512,-4.9497,-4.9438,-4.9564,-4.9503,-4.9517,-4.9592,-4.9718,-4.973,-4.9742,-4.9862,-4.989,-4.9914,0,0,0,0,0,0,-4.9481,-4.9466,-4.9428,-4.9538,-4.9551,-4.954,-4.9602,-4.9555,-4.9585,-4.9572,-4.9517,-4.9518,-4.9614,-4.9611,-4.9544,-4.9718,-4.963,-4.9645,-4.9717,-4.9743,-4.9764,-4.9763,-4.9438,0,0,0,0,0,-4.9521,-4.9573,-4.9556,-4.9655,-4.9664,-4.9632,-4.9657,-4.9624,-4.9635,-4.9639,-4.9631,-4.9643,-4.9685,-4.9714,-4.9751,-4.987,-4.9869,-4.9929,-4.995,-4.9967,-4.9981,-5.0044,-5.0071,-4.9787,-4.9787,-4.9786,0,0,-4.9604,-4.9602,-4.9638,-4.968,-4.9686,-4.974,-4.9638,-4.9699,-4.9739,-4.9648,-4.973,-4.9725,-4.9734,-4.9838,-4.9883,-4.9839,-5.0059,-4.9983,-4.9997,-5.0001,-5.0059,-5.0086,-5.011,-4.9795,-4.9793,-4.9792,0,0,-4.9783,-4.9787,-4.987,-4.9878,-4.9889,-4.9867,-4.9887,-4.9884,-4.9877,-4.9958,-4.9892,-4.9937,-5.0011,-5.0021,-5.0035,-5.0218,-5.0165,-5.0232,-5.0343,-5.0405,-5.0427,-5.0447,-5.0513,-5.0537,-5.0245,-5.0246,-5.0246,0,-4.9884,-4.9964,-4.9918,-4.9985,-5.0005,-4.9926,-5.001,-5.002,-5.0042,-5.0058,-5.0007,-5.0098,-5.0099,-5.0204,-5.0249,-5.0263,-5.0284,-5.0232,-5.0428,-5.0447,-5.0465,-5.0527,-5.0552,-5.0254,-5.0253,-5.0252,-5.0251,0,-5.0089,-5.0145,-5.0211,-5.0236,-5.0263,-5.0338,-5.0302,-5.0335,-5.0299,-5.0283,-5.0366,-5.0365,-5.0401,-5.0423,-5.0388,-5.0523,-5.0495,-5.0438,-5.0348,-5.0501,-5.0558,-5.0582,-5.0265,-5.0263,-5.026,-5.0258,0,0,-5.0346,-5.0344,-5.0369,-5.038,-5.0386,-5.0428,-5.0499,-5.0535,-5.0565,-5.0583,-5.064,-5.0705,-5.0651,-5.0668,-5.0633,-5.0688,-5.0833,-5.0623,-5.0622,-5.0663,-5.0983,-5.1027,-5.1056,-5.0798,-5.0802,-5.0806,-5.0982,0,-5.0521,-5.0644,-5.0604,-5.0727,-5.0779,-5.0705,-5.0766,-5.0776,-5.0763,-5.0803,-5.0787,-5.0834,-5.076,-5.0769,-5.082,-5.0805,-5.0897,-5.0792,-5.0851,-5.0854,-5.0852,-5.1085,-5.1132,-5.1299,-5.1004,-5.1008,-5.1011,0,-5.0743,-5.0771,-5.09,-5.0898,-5.0918,-5.0975,-5.1004,-5.1045,-5.1054,-5.104,-5.1059,-5.1013,-5.1081,-5.0991,-5.1085,-5.1014,-5.1036,-5.1032,-5.1037,-5.1042,-5.0942,-5.1097,-5.1351,-5.1377,-5.1046,-5.1043,-5.104,0,-5.0919,-5.0988,-5.1075,-5.1086,-5.1085,-5.1127,-5.1128,-5.1133,-5.1157,-5.1183,-5.1198,-5.1231,-5.1249,-5.1275,-5.1239,-5.1177,-5.1338,-5.1245,-5.1328,-5.1329,-5.1366,-5.1365,-5.1629,-5.1379,-5.1379,-5.1378,-5.1378,0,-5.1119,-5.1202,-5.1154,-5.1207,-5.1297,-5.1249,-5.1339,-5.1332,-5.1337,-5.1387,-5.1324,-5.1372,-5.132,-5.1363,-5.1335,-5.1417,-5.1425,-5.1416,-5.1407,-5.1422,-5.1424,-5.1436,-5.1424,-5.1385,-5.1383,-5.1382,-5.1381,0,-5.1331,-5.1303,-5.1392,-5.1384,-5.1384,-5.1451,-5.1443,-5.1492,-5.1473,-5.1538,-5.155,-5.1521,-5.1568,-5.1534,-5.1581,-5.1562,-5.167,-5.1645,-5.1667,-5.1661,-5.1747,-5.174,-5.2029,-5.2065,-5.1792,-5.1794,-5.1796,0,-5.1462,-5.1524,-5.1523,-5.1553,-5.1558,-5.1607,-5.1631,-5.1587,-5.1615,-5.163,-5.1677,-5.1719,-5.1751,-5.183,-5.1812,-5.1848,-5.1824,-5.1922,-5.1828,-5.1842,-5.1826,-5.1823,-5.1829,-5.1942,-5.1945,-5.1948,-5.195,0,-5.1697,-5.168,-5.1719,-5.1753,-5.1785,-5.1809,-5.1828,-5.1855,-5.181,-5.1845,-5.1893,-5.1918,-5.1966,-5.2009,-5.2038,-5.2038,-5.1987,-5.198,-5.2001,-5.2017,-5.2028,-5.2024,-5.172,-5.1973,-5.1971,-5.1969,-5.1968,-5.1967,-5.1873,-5.1924,-5.1932,-5.1977,-5.1987,-5.2007,-5.2052,-5.204,-5.208,-5.2116,-5.2087,-5.2145,-5.2152,-5.2186,-5.2193,-5.2237,-5.2196,-5.2227,-5.2235,-5.2243,-5.2256,-5.202,-5.2241,-5.2241,-5.224,-5.2239,-5.2239,0,-5.2106,-5.2107,-5.2149,-5.2178,-5.2214,-5.2163,-5.2182,-5.2215,-5.2267,-5.2278,-5.2311,-5.2366,-5.2407,-5.2393,-5.243,-5.2468,-5.2445,-5.2479,-5.2476,-5.2477,-5.229,-5.2268,-5.2496,-5.2496,-5.2496,-5.2496,-5.2496,-5.2496,-5.2231,-5.2316,-5.23,-5.2388,-5.2388,-5.2446,-5.2461,-5.2478,-5.2487,-5.2552,-5.2587,-5.2577,-5.2578,-5.2614,-5.265,-5.2644,-5.2661,-5.2703,-5.269,-5.2515,-5.249,-5.2466,-5.2445,-5.2707,-5.2708,-5.2873,-5.2875,-5.2876]}]]